Regional Weather Roundup
Issued by NWS

Home | Current Version | Previous Version | Text Only | Print | Product List | Glossary On
Versions: 1 2 3 4 5 6 7 8 9 10 11 12 13 14 15 16 17 18 19 20 21 22 23 24 25 26 27 28 29 30 31 32 33 34 35 36 37 38 39 40 41 42 43 44 45 46 47 48 49 50
000
ASUS43 KDTX 181101
RWRMI
MICHIGAN HOURLY REGIONAL WEATHER ROUNDUP
NATIONAL WEATHER SERVICE DETROIT/PONTIAC MI
600 AM EST WED JAN 18 2017

NOTE: "FAIR" INDICATES FEW OR NO CLOUDS BELOW 12,000 FEET WITH NO
SIGNIFICANT WEATHER AND/OR OBSTRUCTION TO VISIBILITY.

MIZ047>049-052>055-059>063-066>070-074>076-081>083-181200-
SOUTHEAST LOWER MICHIGAN

CITY           SKY/WX    TMP DP  RH WIND       PRES   REMARKS
ADRIAN         CLOUDY    35  34  96 W9        30.03R WCI  28
ALMA           CLOUDY    35  35  99 W6        29.99R FOG     WCI  30
ANN ARBOR      CLOUDY    36  35  96 SW10      30.00R WCI  28
BAD AXE        CLOUDY    33  33 100 W3        29.95R FOG
CARO           CLOUDY    35  34  97 W5        29.96R FOG     WCI  31
DETROIT        LGT RAIN  37  35  92 W9        30.01R WCI  30
FLINT          CLOUDY    36  34  92 W9        29.98R WCI  29
GROSSE ILE     CLOUDY    36  34  91 W7        30.00R WCI  31
HILLSDALE      CLOUDY    32  32 100 W10       30.01R FOG     WCI  24
HOWELL         CLOUDY    35  34  96 W8        29.98S FOG     WCI  29

CITY           SKY/WX    TMP DP  RH WIND       PRES   REMARKS
JACKSON        CLOUDY    35  33  92 W8        30.00R FOG     WCI  29
LAMBERTVILLE   CLOUDY    37  34  91 W6        30.03R WCI  32
LANSING        CLOUDY    36  33  89 W10       30.00R FOG     WCI  28
LAPEER         CLOUDY    36  35  99 W7        29.97R FOG     WCI  30
MASON          CLOUDY    35  35 100 W7        30.00S FOG     WCI  29
MONROE         CLOUDY    36  35  96 W8        30.01R WCI  29
MT. CLEMENS    CLOUDY    37  37  99 W8        29.96R WCI  31
PONTIAC        CLOUDY    35  33  92 W12       29.96R WCI  27
PORT HOPE        N/A     34  34 100 NW7       29.93R WCI  28
PORT HURON     CLOUDY    36  36 100 CALM      29.97R FOG
TRI CITIES     CLOUDY    35  35 100 W6        29.98R FOG     WCI  30
MIDLAND        CLOUDY    36  34  95 W3        29.96S
TROY           CLOUDY    37  35  90 W9        30.00R WCI  31
SAGINAW HB     CLOUDY    36  32  87 SW5       29.97R FOG     WCI  32
$$
MIZ043>046-050>051-056>058-064>065-071>073-077>080-181200-
SOUTHWEST LOWER MICHIGAN

CITY           SKY/WX    TMP DP  RH WIND       PRES   REMARKS
BATTLE CREEK   CLOUDY    35  35 100 W8        30.02R FOG     WCI  29
BENTON HARBOR  CLOUDY    36  34  92 W13       30.06S FOG     WCI  27
BIG RAPIDS     FOG       34  33  96 W5        29.96S VSB 1/2 WCI  30
COLDWATER      CLOUDY    35  35 100 W8        30.03R FOG     WCI  28
FREMONT        FOG       35  35 100 W3        29.99S VSB 1/4
HOLLAND        CLOUDY    36  34  92 W7        30.03R WCI  30
GRAND RAPIDS   FOG       35  34  96 W8        30.01R VSB 1/2 WCI  29
IONIA          CLOUDY    35  35 100 W7        29.99R FOG     WCI  29
KALAMAZOO      CLOUDY    36  33  89 W8        30.04R FOG     WCI  30
LUDINGTON      CLOUDY    35  35  99 NW3       29.99R
MARSHALL       CLOUDY    35  35  99 W7        30.01R FOG     WCI  29
MOUNT PLEASANT CLOUDY    35  34  99 W5        29.97R FOG     WCI  31
MUSKEGON       CLOUDY    36  35  96 W6        30.03R WCI  31
SOUTH HAVEN    CLOUDY    36  36  99 W6        30.05S FOG     WCI  31
$$
MIZ016>042-181200-
NORTHERN LOWER MICHIGAN

CITY           SKY/WX    TMP DP  RH WIND       PRES   REMARKS
ALPENA         FOG       33  32  96 CALM      29.93S VSB 1/2
BELLAIRE       CLOUDY    33  32  99 CALM      29.96R FOG
CADILLAC       CLOUDY    33  32  96 W3        29.93R FOG
CHARLEVOIX     CLOUDY    34  34  99 W7        29.98R WCI  28
FRANKFORT      CLOUDY    34  34  99 W5        29.98R WCI  30
GAYLORD        CLOUDY    32  29  88 W5        29.90S FOG     WCI  27
GRAYLING       CLOUDY    33  32  95 NW8       29.93R WCI  26
HARBOR SPRINGS CLOUDY    33  32  97 W6        29.94R FOG     WCI  27
HOUGHTON LAKE  CLOUDY    33  32  96 W6        29.93R FOG     WCI  28
MANISTEE       CLOUDY    35  33  92 W8        29.99R WCI  29
OSCODA         CLOUDY    34  33  97 CALM      29.94R FOG
PELLSTON       CLOUDY    32  29  88 W6        29.94R WCI  26
ROGERS CITY    CLOUDY    33  32  97 SW3       29.93S FOG
TRAVERSE CITY  CLOUDY    35  33  92 W6        29.96R WCI  30
$$
MIZ007>008-015-181200-
EASTERN UPPER MICHIGAN

CITY           SKY/WX    TMP DP  RH WIND       PRES   REMARKS
KINROSS        FOG       29  28  96 SW5       29.91S VSB 3/4 WCI  24
MACKINAC ISLAN CLOUDY    31  31 100 W7        29.92R WCI  24
NEWBERRY       FOG       30  29  96 SW12      29.89R VSB 1/2 WCI  20
S. S. MARIE    FOG       28  27  96 CALM      29.90S VSB 1/4
MUNISING         N/A     28  26  92 S8        29.88S WCI  20
$$
MIZ004>006-011>014-085-181200-
CENTRAL UPPER MICHIGAN

CITY           SKY/WX    TMP DP  RH WIND       PRES   REMARKS
MANISTIQUE     CLOUDY    32  31  97 SW3       29.92R FOG
ESCANABA       CLOUDY    32  31  96 SW6       29.93R WCI  26
SAWYER-GWINN   CLOUDY    21  20  96 S8        29.86S WCI  12
$$
MIZ001>003-009>011-084-181200-
WESTERN UPPER MICHIGAN

CITY           SKY/WX    TMP DP  RH WIND       PRES   REMARKS
IRON MOUNTAIN  CLOUDY    14  10  84 CALM      29.88S FOG
HOUGHTON       CLOUDY    27  21  78 SW5       29.78F WCI  22
COPPER HARBOR    N/A     28  24  85 CALM      29.78F
IRONWOOD       CLEAR     28  23  81 SW14G22   29.83F WCI  17
$$

ABBREVIATIONS USED IN REMARKS
   TC - TEMPERATURE IN CELSIUS
  WCI - WIND CHILL INDEX
   HX - HEAT INDEX
  VSB - VISIBILITY





USA.gov is the U.S. government's official web portal to all federal, state and local government web resources and services.